Location: Unspecified
(55.7024°N, 37.6611°E)
Time: 18:33:21
(UTC+03:00)

Transit 2A Rocket - All Passes

Search period start: 23 June 2025 00:00
Search period end: 03 July 2025 00:00
Orbit: 590 x 896 km, 66.7° (Epoch: 22 June)

Date Brightness Start Highest point End Pass type
(mag) Time Alt. Az. Time Alt. Az. Time Alt. Az.
23 Jun - 02:24:26 10° SE 02:26:21 13° ESE 02:28:18 10° E visible
23 Jun - 04:03:34 10° SSW 04:07:50 70° SE 04:12:18 10° NE daylight
23 Jun - 05:46:36 10° W 05:50:33 33° NNW 05:54:43 10° NE daylight
23 Jun - 07:30:44 10° NW 07:34:10 21° N 07:37:48 10° NE daylight
23 Jun - 09:13:48 10° NW 09:17:51 29° NNE 09:22:12 10° E daylight
23 Jun - 10:56:04 10° NW 11:00:50 82° NE 11:06:00 10° SE daylight
23 Jun - 12:38:56 10° WNW 12:42:49 24° WSW 12:46:57 10° SSW daylight
24 Jun - 03:18:44 10° SSW 03:22:46 42° ESE 03:26:59 10° NE daylight
24 Jun - 05:00:59 10° WSW 05:05:08 44° NW 05:09:31 10° NE daylight
24 Jun - 06:45:02 10° WNW 06:48:33 22° N 06:52:15 10° NE daylight
24 Jun - 08:28:32 10° NW 08:32:19 25° NNE 08:36:21 10° ENE daylight
24 Jun - 10:10:55 10° NW 10:15:33 57° NE 10:20:37 10° ESE daylight
24 Jun - 11:53:24 10° NW 11:57:50 37° WSW 12:02:39 10° S daylight
25 Jun - 02:34:16 10° S 02:37:49 26° ESE 02:41:28 10° ENE visible
25 Jun - 04:15:32 10° SW 04:19:49 65° NW 04:24:19 10° NE daylight
25 Jun - 05:59:17 10° WNW 06:02:58 25° NNW 06:06:50 10° NE daylight
25 Jun - 07:43:08 10° NW 07:46:44 22° N 07:50:31 10° ENE daylight
25 Jun - 09:25:45 10° NW 09:30:11 41° NNE 09:35:00 10° ESE daylight
25 Jun - 11:08:04 10° NW 11:12:47 58° SW 11:17:55 10° SSE daylight
25 Jun - 12:52:10 10° W 12:54:20 13° WSW 12:56:36 10° SW daylight
26 Jun - 01:50:27 10° SE 01:52:59 15° ESE 01:55:34 10° ENE visible
26 Jun - 03:30:18 10° SW 03:34:35 82° SE 03:39:06 10° NE daylight
26 Jun - 05:13:32 10° W 05:17:26 30° NNW 05:21:32 10° NE daylight
26 Jun - 06:57:37 10° NW 07:01:06 21° N 07:04:46 10° NE daylight
26 Jun - 08:40:34 10° NW 08:44:45 32° NNE 08:49:14 10° E daylight
26 Jun - 10:22:50 10° NW 10:27:37 88° SW 10:32:51 10° SE daylight
26 Jun - 12:05:52 10° WNW 12:09:31 21° WSW 12:13:21 10° SSW daylight
27 Jun - 02:45:20 10° SSW 02:49:29 50° SE 02:53:49 10° NE visible
27 Jun - 04:27:52 10° WSW 04:31:58 40° NNW 04:36:19 10° NE daylight
27 Jun - 06:11:58 10° WNW 06:15:28 22° N 06:19:10 10° NE daylight
27 Jun - 07:55:18 10° NW 07:59:13 26° NNE 08:03:23 10° ENE daylight
27 Jun - 09:37:39 10° NW 09:42:22 64° NE 09:47:32 10° ESE daylight
27 Jun - 11:20:14 10° WNW 11:24:34 32° WSW 11:29:14 10° S daylight
28 Jun - 02:00:44 10° S 02:04:30 30° ESE 02:08:23 10° ENE visible
28 Jun - 03:42:21 10° WSW 03:46:36 57° NW 03:51:07 10° NE daylight
28 Jun - 05:26:14 10° WNW 05:29:52 24° NNW 05:33:42 10° NE daylight
28 Jun - 07:09:58 10° NW 07:13:39 23° NNE 07:17:32 10° ENE daylight
28 Jun - 08:52:29 10° NW 08:57:02 46° NE 09:01:58 10° ESE daylight
28 Jun - 10:34:51 10° NW 10:39:32 50° SW 10:44:37 10° SSE daylight
28 Jun - 12:19:48 10° W 12:20:59 11° WSW 12:22:10 10° WSW daylight
29 Jun - 01:16:38 10° SSE 01:19:37 18° ESE 01:22:40 10° ENE visible
29 Jun - 02:57:02 10° SW 03:01:20 86° NW 03:05:54 10° NE daylight
29 Jun - 04:40:28 10° W 04:44:19 28° NNW 04:48:22 10° NE daylight
29 Jun - 06:24:29 10° NW 06:28:01 22° N 06:31:45 10° NE daylight
29 Jun - 08:07:19 10° NW 08:11:38 35° NNE 08:16:15 10° E daylight
29 Jun - 09:49:35 10° NW 09:54:24 77° SW 09:59:40 10° SE daylight
29 Jun - 11:32:52 10° WNW 11:36:11 18° WSW 11:39:40 10° SSW daylight
30 Jun - 00:33:53 10° ESE 00:34:52 11° ESE 00:35:51 10° E visible
30 Jun - 02:11:58 10° SSW 02:16:12 60° SE 02:20:38 10° NE visible
30 Jun - 03:54:46 10° W 03:58:49 36° NNW 04:03:06 10° NE daylight
30 Jun - 05:38:52 10° NW 05:42:23 22° N 05:46:05 10° NE daylight
30 Jun - 07:22:05 10° NW 07:26:07 28° NNE 07:30:26 10° E daylight
30 Jun - 09:04:24 10° NW 09:09:11 73° NE 09:14:25 10° SE daylight
30 Jun - 10:47:05 10° WNW 10:51:17 28° WSW 10:55:45 10° S daylight
01 Jul - 01:27:14 10° S 01:31:10 36° ESE 01:35:17 10° NE visible
01 Jul - 03:09:11 10° WSW 03:13:25 50° NW 03:17:54 10° NE daylight
01 Jul - 04:53:09 10° WNW 04:56:45 23° NNW 05:00:34 10° NE daylight
01 Jul - 06:36:46 10° NW 06:40:33 24° NNE 06:44:34 10° ENE daylight
01 Jul - 08:19:14 10° NW 08:23:53 51° NE 08:28:56 10° ESE daylight
01 Jul - 10:01:39 10° NW 10:06:16 44° WSW 10:11:17 10° SSE daylight
02 Jul - 00:42:56 10° SSE 00:46:15 22° ESE 00:49:41 10° ENE visible
02 Jul - 02:23:48 10° SW 02:28:07 75° NW 02:32:41 10° NE visible
02 Jul - 04:07:23 10° WNW 04:11:11 27° NNW 04:15:12 10° NE daylight
02 Jul - 05:51:20 10° NW 05:54:56 22° N 05:58:45 10° ENE daylight
02 Jul - 07:34:03 10° NW 07:38:29 38° NNE 07:43:16 10° E daylight
02 Jul - 09:16:21 10° NW 09:21:10 68° SW 09:26:26 10° SSE daylight
02 Jul - 10:59:56 10° WNW 11:02:51 15° WSW 11:05:52 10° SW daylight
